SCP
0 0 0 0 0 0 0 0 0 0 0 0 0 0 0 0 -0 0 0 0 0 0 0 0 0 0 0 0 0 0 0 0 0 0 0 0 0 0 0 0 0 0 0 1 1
0 0 0 0 0 0 0 0 0 0 0 0 0 0 0 0 -0 -0 0 0 0 0 0 0 0 0 0 0 0 0 0 0 0 0 0 0 0 0 0 0 0 0 0 1 0
0 0 0 0 -0 -0 0 0 0 0 0 0 0 0 0 0 0 0 0 -0 0 0 0 0 0 0 0 0 0 0 0 0 0 0 0 0 0 0 0 0 0 0 0 1 1
0 0 0 0 -0 -0 0 0 0 0 0 0 0 0 0 0 0 0 0 0 0 0 0 0 0 0 0 0 0 0 0 0 0 0 0 0 0 0 0 0 0 0 0 1 1
0 0 0 0 0 0 0 0 0 0 0 0 0 0 0 0 0 0 0 0 0 0 0 0 0 0 0 0 -0 0 0 0 0 0 0 0 0 0 0 0 0 0 0 0 1
0 0 0 0 0 0 0 0 0 0 0 0 0 0 0 0 0 0 0 0 0 0 0 0 0 0 0 -0 -0 -0 -0 0 0 0 0 0 0 0 0 0 0 0 0 0 0
0 0 0 0 0 0 0 0 0 0 0 0 0 0 0 0 0 0 0 0 -0 0 0 0 0 0 0 0 0 0 -0 0 0 0 0 0 0 0 0 0 0 0 0 0 0
0 0 0 0 0 0 0 0 0 0 0 0 0 0 0 0 0 0 0 0 0 0 0 0 0 0 0 0 0 -0 0 -0 -0 -0 0 0 0 0 0 0 0 0 0 0 0
0 0 0 0 0 0 0 0 0 0 0 0 0 0 0 0 0 0 0 0 0 0 0 0 0 0 0 0 0 0 0 -0 -0 -0 -0 0 0 0 0 0 0 0 0 0 0
0 0 0 0 0 0 0 0 0 0 0 0 0 0 0 0 0 0 0 0 0 0 0 0 0 0 0 0 0 0 0 -0 0 0 -0 -0 0 0 0 0 0 0 0 0 0
0 0 0 0 0 0 0 0 0 0 0 0 0 0 0 0 0 0 0 0 0 0 0 0 0 0 0 0 0 0 0 0 -0 0 0 -0 -0 -0 -0 0 0 0 0 0 0
0 0 0 0 0 0 0 0 0 0 0 0 -0 -0 0 0 0 0 0 0 0 0 0 0 0 0 0 0 0 0 0 0 0 0 0 0 0 0 0 0 0 0 0 0 0
0 0 0 0 0 0 0 0 0 0 0 0 0 0 0 0 0 0 0 0 0 0 0 0 0 0 0 0 0 0 0 0 0 0 0 0 0 0 0 0 0 0 0 0 0
0 0 0 0 0 0 0 0 0 -0 0 0 0 0 0 0 0 0 0 0 0 0 0 0 0 0 0 0 0 0 0 0 0 0 0 0 0 0 0 0 0 0 0 0 0
0 0 0 0 0 0 0 0 0 0 0 0 0 0 0 0 0 0 0 0 0 0 0 0 0 0 0 0 0 0 0 0 0 0 0 0 0 0 0 0 0 0 0 0 0
0 0 0 0 0 0 0 0 0 0 0 0 0 0 0 0 0 0 0 0 0 0 0 0 0 0 0 0 0 0 0 0 0 0 0 0 0 0 0 0 0 0 0 0 0
0 0 0 0 0 0 0 0 0 0 0 0 0 0 0 0 0 0 0 0 0 0 0 0 0 0 0 0 0 0 0 0 0 0 0 0 0 0 0 0 0 0 0 0 0
0 0 0 0 0 -0 0 0 0 0 0 0 0 0 0 0 0 0 0 0 0 0 0 0 0 0 0 0 0 0 0 0 0 0 0 0 0 0 0 0 0 0 0 0 0
0 0 0 0 0 0 0 0 0 0 0 0 0 0 0 0 0 0 0 0 0 0 0 0 0 0 0 0 0 0 0 0 0 0 0 0 0 0 0 0 0 0 0 0 0
0 0 0 0 0 0 0 0 0 0 0 0 0 0 0 0 0 0 0 0 -0 0 0 0 0 0 0 0 0 0 0 0 0 0 0 0 0 0 0 0 0 0 0 0 0
0 0 0 0 0 0 -0 0 0 0 0 0 0 0 0 -0 0 0 0 0 0 0 0 0 0 0 0 0 0 0 0 0 0 0 0 0 0 0 0 0 0 0 0 0 0
0 0 0 -0 -0 0 -0 -0 -0 0 -0 0 0 0 0 -0 0 0 0 0 0 0 0 0 0 0 0 0 0 0 0 0 0 0 0 0 0 0 0 0 0 0 0 0 0
0 0 -0 -0 0 0 -0 -0 -0 0 0 -0 -0 -0 0 0 0 0 0 0 -0 0 0 0 0 0 0 0 0 0 0 0 0 0 0 0 0 0 0 0 0 0 0 0 0
-0 -0 0 0 -0 -0 -0 0 0 0 0 0 0 0 0 0 0 0 0 0 0 -0 0 0 0 0 0 0 0 0 0 0 0 0 0 0 0 0 0 0 0 0 0 0 0
0 0 0 -0 -0 0 0 0 0 0 0 0 0 0 0 0 0 0 0 0 0 0 0 0 0 0 0 0 0 0 0 0 0 0 0 0 0 0 0 0 0 0 0 0 0
0 -0 0 -0 -0 -0 0 0 0 0 0 0 0 0 0 0 0 0 0 0 0 0 0 0 0 0 0 0 0 0 0 0 0 0 0 0 0 0 0 0 0 0 0 0 0
-0 0 0 0 -0 -0 0 0 0 0 0 -0 -0 -0 0 0 0 0 0 0 0 0 0 0 0 0 0 0 0 0 0 0 0 0 0 0 0 0 0 0 0 0 0 0 0
Wind_Speed_500mb
30 29 28 28 29 29 29 28 29 28 27 27 26 29 28 29 40 40 51 48 60 23 49 37 57 49 37 24 25 17 21 28 34 26 15 14 18 12 8 10 6 11 3 13 29
33 31 30 29 29 30 30 31 31 30 30 30 31 31 30 26 34 56 58 54 47 50 41 46 55 52 46 49 20 33 32 42 16 7 12 5 10 5 16 13 15 12 11 16 31
35 37 33 32 33 32 33 32 32 34 32 32 33 34 30 22 30 33 32 44 48 53 44 40 55 61 59 61 33 39 40 34 23 17 32 31 23 16 22 19 3 5 12 20 32
38 38 38 38 37 36 36 36 34 34 35 34 35 32 28 11 11 10 2 9 46 65 57 54 47 61 55 57 63 36 45 40 20 36 34 24 23 22 21 26 11 6 2 22 35
37 35 36 37 38 37 39 39 38 36 36 35 35 34 16 19 47 29 23 32 36 71 68 66 63 66 54 58 59 49 40 17 27 37 44 50 43 40 43 30 26 14 14 21 33
39 38 37 37 38 39 39 40 41 40 38 36 35 31 17 29 24 19 17 28 32 71 64 61 65 69 67 61 57 53 50 36 13 40 43 54 51 43 47 35 39 29 21 24 29
39 41 42 40 41 41 42 40 39 39 39 37 36 26 32 56 21 14 8 14 35 66 66 61 53 60 48 51 65 50 41 26 29 31 36 44 57 45 52 42 33 40 29 25 26
43 44 44 43 44 43 44 46 39 37 38 37 32 24 28 27 27 48 32 16 31 56 52 53 44 56 43 41 32 51 35 39 38 41 32 11 52 43 47 40 47 44 40 31 32
49 49 46 45 43 46 45 45 40 33 33 22 24 22 25 22 34 37 33 27 37 47 43 52 34 52 38 31 30 37 40 48 31 63 36 29 38 54 61 36 43 44 43 38 36
54 54 47 44 43 43 47 44 33 11 7 20 9 15 39 19 22 28 36 32 53 52 41 48 40 28 36 33 41 43 51 38 37 29 55 53 51 32 49 45 45 41 48 45 41
57 56 56 49 47 43 41 38 12 11 40 31 24 25 1 20 22 36 47 51 40 60 34 48 39 48 49 46 39 33 31 28 34 26 41 49 39 38 48 34 35 36 37 35 40
57 63 61 54 47 43 41 24 32 13 24 59 64 52 34 10 23 43 56 39 48 45 42 34 47 40 39 40 41 24 34 39 19 29 34 36 39 39 34 36 42 37 32 28 26
64 75 68 57 50 46 27 31 10 11 19 34 60 61 57 34 31 61 69 39 49 45 44 41 41 41 41 43 39 36 33 29 25 27 23 16 29 31 33 32 23 24 20 18 17
75 74 66 49 31 13 26 21 20 24 12 19 31 27 47 33 23 58 71 45 33 46 46 37 29 42 40 47 45 40 31 25 24 21 23 34 26 44 40 31 28 30 18 14 7
74 78 68 33 37 38 17 9 10 19 13 22 30 7 39 56 37 63 72 48 45 41 36 34 44 47 47 43 38 28 28 33 30 27 26 23 17 13 19 26 31 23 20 14 6
74 74 54 40 37 41 23 18 11 12 17 19 23 33 47 61 44 70 76 55 40 41 40 27 36 38 39 35 32 18 22 21 20 22 25 34 24 26 22 27 25 20 13 5 1
61 65 63 53 59 27 21 20 12 15 8 24 26 41 48 50 36 52 61 53 37 38 41 27 32 28 31 33 31 35 30 17 19 20 23 11 23 32 18 10 6 8 6 6 9
69 75 55 43 34 37 27 11 19 30 44 7 17 37 45 51 30 42 50 48 46 40 37 35 39 44 35 36 28 40 37 18 21 21 20 23 16 13 13 11 9 10 12 13 14
74 49 49 25 28 47 30 16 24 29 11 33 21 32 36 41 24 22 32 48 47 43 33 39 37 41 35 26 35 46 37 36 13 4 9 18 12 14 19 20 16 18 21 20 18
64 54 31 19 23 58 19 23 31 32 19 11 31 28 39 49 29 36 41 47 47 40 20 20 28 32 32 27 31 24 35 22 17 21 22 18 12 5 29 24 22 19 18 18 17
37 27 12 25 42 29 26 30 43 39 25 11 20 18 30 54 38 50 38 29 36 34 25 17 17 24 23 35 34 25 24 22 15 21 16 17 9 9 21 19 22 19 16 12 12
23 12 14 27 8 12 30 49 58 31 33 4 5 8 19 49 44 48 37 31 51 27 36 20 13 25 23 10 12 24 37 31 18 18 14 13 7 13 22 21 20 18 12 11 11
29 22 12 23 6 10 30 42 51 35 17 6 7 13 27 21 27 35 32 3 75 58 44 29 20 17 9 3 8 23 14 18 14 9 20 19 5 11 21 21 13 7 8 8 9
14 9 10 19 11 7 14 33 38 35 35 10 5 11 11 9 17 31 29 12 36 54 38 26 13 23 16 28 28 22 21 19 22 17 22 23 10 22 21 18 15 1 13 10 8
8 9 16 9 5 23 6 24 22 23 11 10 6 11 9 5 10 29 31 38 26 16 13 21 21 14 20 22 13 19 23 19 23 24 19 20 21 17 12 10 16 15 10 5 2
14 12 19 27 25 24 14 10 12 15 7 11 11 18 20 5 8 24 39 29 21 17 22 8 15 21 16 11 6 9 13 19 19 18 19 19 20 13 20 19 15 5 8 10 8
25 38 18 20 20 13 11 18 13 8 29 34 28 21 11 2 9 31 36 27 16 23 21 13 18 17 12 11 4 14 29 27 22 17 21 23 14 6 11 5 1 7 9 8 4
Wind_Direction_500mb
328 322 314 312 311 311 311 313 316 321 325 321 312 295 282 280 277 264 247 237 234 232 213 204 218 219 216 209 233 204 236 227 212 216 220 183 218 217 279 241 205 205 279 93 165
324 321 317 312 309 307 309 311 310 312 314 319 317 304 289 284 284 264 253 258 247 211 203 203 206 207 205 210 240 219 216 229 214 274 270 210 261 267 264 217 196 208 210 153 164
317 313 311 309 306 305 304 303 306 307 308 310 314 309 289 293 290 271 255 248 230 213 204 207 210 203 204 204 213 236 235 224 264 298 287 279 268 260 256 236 166 219 202 192 178
316 312 308 307 306 302 299 297 297 299 301 303 309 308 285 269 262 170 170 310 214 201 204 209 213 206 208 196 204 247 250 244 247 275 275 260 274 265 271 261 148 121 179 197 190
323 323 315 309 310 304 294 292 292 291 291 295 302 303 277 241 248 252 269 288 202 188 200 202 204 206 209 206 208 207 228 223 255 258 273 290 277 281 275 265 254 247 257 206 195
325 321 315 310 307 304 299 292 289 288 288 286 290 291 238 250 264 275 247 265 213 185 192 199 207 204 217 209 207 208 218 202 220 271 280 280 279 262 264 267 257 245 236 219 209
318 314 311 310 305 306 302 296 287 287 284 278 278 261 248 243 244 240 245 210 197 191 191 195 201 203 219 213 211 225 204 202 210 232 251 274 281 262 257 264 252 234 225 219 216
319 311 306 306 307 305 304 301 297 289 280 274 263 216 251 260 246 241 233 216 187 195 199 196 202 206 221 206 201 215 213 218 212 207 243 199 269 267 264 247 243 239 226 221 222
328 315 310 306 304 305 303 301 302 294 286 258 183 206 262 259 237 225 201 196 173 178 196 197 207 210 197 197 192 206 216 219 209 192 201 183 251 249 273 253 239 234 231 223 220
329 328 312 304 303 302 306 302 304 254 154 150 202 219 238 228 210 193 185 183 164 167 174 190 202 203 217 205 205 204 217 213 208 211 197 210 238 237 253 245 241 240 232 227 229
323 326 328 311 303 301 306 317 248 230 198 209 214 223 138 183 166 172 172 157 168 169 179 195 197 207 205 214 233 209 212 216 206 209 208 214 221 234 235 237 237 223 236 239 242
320 322 322 317 303 294 289 254 242 272 273 240 241 239 237 241 190 172 164 159 171 181 174 182 212 205 210 209 225 230 206 218 174 176 214 212 230 209 231 230 238 228 222 233 256
319 319 320 315 306 300 271 246 271 246 250 261 228 229 223 206 198 178 178 172 180 186 191 192 197 209 206 199 211 217 222 206 207 192 219 228 223 230 226 231 210 227 234 250 270
315 318 321 314 316 271 296 290 265 232 269 234 195 232 205 203 216 185 187 175 182 193 189 209 199 194 199 206 206 209 218 235 216 227 222 195 244 207 225 212 210 218 210 211 186
313 316 319 305 283 283 282 312 240 186 269 141 165 186 181 184 159 183 187 188 186 185 188 195 192 196 203 202 194 220 175 216 224 230 249 201 241 216 186 219 217 214 204 177 156
306 308 314 303 276 269 255 266 242 226 240 173 155 172 161 196 186 166 187 203 191 176 202 172 193 200 202 194 188 173 198 205 224 226 227 231 217 225 193 219 206 156 170 137 45
316 310 300 283 263 263 241 210 220 225 187 172 179 173 182 183 163 174 178 194 192 180 194 181 191 188 191 188 195 200 185 180 200 204 236 192 198 244 118 148 136 144 107 30 27
317 312 301 278 250 210 180 198 240 217 236 73 184 180 186 179 155 173 179 187 200 201 180 187 184 182 197 202 189 195 198 231 213 213 198 145 220 139 137 136 151 114 97 70 46
323 319 299 284 234 192 186 213 220 234 228 241 223 184 180 175 171 159 207 195 197 200 207 192 195 178 177 199 190 194 212 233 267 345 277 174 122 150 152 147 144 128 113 90 72
323 317 305 292 207 183 208 229 230 254 284 228 215 192 185 171 161 175 196 196 191 203 208 194 161 190 171 205 205 198 199 195 215 225 218 210 219 163 173 158 142 133 112 86 76
330 320 301 330 165 177 212 221 234 249 303 279 232 202 217 177 180 178 196 177 176 172 188 183 210 159 169 206 187 197 205 222 249 223 223 245 215 99 135 157 137 122 109 83 58
320 307 336 155 208 203 232 225 234 253 224 166 81 26 262 182 195 184 183 195 183 198 187 160 190 174 171 57 311 220 211 207 221 205 245 282 290 97 136 143 142 125 94 64 41
312 297 299 211 291 248 249 236 235 249 238 182 142 137 305 229 200 185 161 239 174 184 183 174 160 153 181 226 204 207 197 214 232 274 228 233 218 146 143 150 137 80 29 36 28
302 310 20 183 19 296 329 253 232 241 236 129 114 128 246 154 233 180 137 133 186 190 167 180 158 202 193 195 183 186 188 200 218 228 240 239 205 167 182 192 197 307 337 346 12
291 336 354 310 332 348 244 292 238 203 83 82 74 265 124 133 144 158 137 127 135 157 123 174 176 135 96 103 152 189 189 191 216 236 250 258 259 250 200 230 303 314 268 250 126
352 331 322 294 324 356 5 325 71 91 66 81 79 110 134 215 71 138 141 141 146 156 141 170 141 149 117 111 125 192 205 210 222 231 229 256 242 262 267 274 263 284 184 176 150
343 334 293 293 350 344 320 332 345 114 35 129 116 103 90 138 297 79 67 68 18 149 122 129 148 184 178 156 115 256 226 217 220 215 236 230 249 161 218 209 197 149 162 158 162
Wind_Speed_850mb
30 29 28 28 29 29 29 28 29 28 27 27 26 29 28 29 40 40 51 48 60 23 49 37 57 49 37 24 25 17 21 28 34 26 15 14 18 12 8 10 6 11 3 13 29
33 31 30 29 29 30 30 31 31 30 30 30 31 31 30 26 34 56 58 54 47 50 41 46 55 52 46 49 20 33 32 42 16 7 12 5 10 5 16 13 15 12 11 16 31
35 37 33 32 33 32 33 32 32 34 32 32 33 34 30 22 30 33 32 44 48 53 44 40 55 61 59 61 33 39 40 34 23 17 32 31 23 16 22 19 3 5 12 20 32
38 38 38 38 37 36 36 36 34 34 35 34 35 32 28 11 11 10 2 9 46 65 57 54 47 61 55 57 63 36 45 40 20 36 34 24 23 22 21 26 11 6 2 22 35
37 35 36 37 38 37 39 39 38 36 36 35 35 34 16 19 47 29 23 32 36 71 68 66 63 66 54 58 59 49 40 17 27 37 44 50 43 40 43 30 26 14 14 21 33
39 38 37 37 38 39 39 40 41 40 38 36 35 31 17 29 24 19 17 28 32 71 64 61 65 69 67 61 57 53 50 36 13 40 43 54 51 43 47 35 39 29 21 24 29
39 41 42 40 41 41 42 40 39 39 39 37 36 26 32 56 21 14 8 14 35 66 66 61 53 60 48 51 65 50 41 26 29 31 36 44 57 45 52 42 33 40 29 25 26
43 44 44 43 44 43 44 46 39 37 38 37 32 24 28 27 27 48 32 16 31 56 52 53 44 56 43 41 32 51 35 39 38 41 32 11 52 43 47 40 47 44 40 31 32
49 49 46 45 43 46 45 45 40 33 33 22 24 22 25 22 34 37 33 27 37 47 43 52 34 52 38 31 30 37 40 48 31 63 36 29 38 54 61 36 43 44 43 38 36
54 54 47 44 43 43 47 44 33 11 7 20 9 15 39 19 22 28 36 32 53 52 41 48 40 28 36 33 41 43 51 38 37 29 55 53 51 32 49 45 45 41 48 45 41
57 56 56 49 47 43 41 38 12 11 40 31 24 25 1 20 22 36 47 51 40 60 34 48 39 48 49 46 39 33 31 28 34 26 41 49 39 38 48 34 35 36 37 35 40
57 63 61 54 47 43 41 24 32 13 24 59 64 52 34 10 23 43 56 39 48 45 42 34 47 40 39 40 41 24 34 39 19 29 34 36 39 39 34 36 42 37 32 28 26
64 75 68 57 50 46 27 31 10 11 19 34 60 61 57 34 31 61 69 39 49 45 44 41 41 41 41 43 39 36 33 29 25 27 23 16 29 31 33 32 23 24 20 18 17
75 74 66 49 31 13 26 21 20 24 12 19 31 27 47 33 23 58 71 45 33 46 46 37 29 42 40 47 45 40 31 25 24 21 23 34 26 44 40 31 28 30 18 14 7
74 78 68 33 37 38 17 9 10 19 13 22 30 7 39 56 37 63 72 48 45 41 36 34 44 47 47 43 38 28 28 33 30 27 26 23 17 13 19 26 31 23 20 14 6
74 74 54 40 37 41 23 18 11 12 17 19 23 33 47 61 44 70 76 55 40 41 40 27 36 38 39 35 32 18 22 21 20 22 25 34 24 26 22 27 25 20 13 5 1
61 65 63 53 59 27 21 20 12 15 8 24 26 41 48 50 36 52 61 53 37 38 41 27 32 28 31 33 31 35 30 17 19 20 23 11 23 32 18 10 6 8 6 6 9
69 75 55 43 34 37 27 11 19 30 44 7 17 37 45 51 30 42 50 48 46 40 37 35 39 44 35 36 28 40 37 18 21 21 20 23 16 13 13 11 9 10 12 13 14
74 49 49 25 28 47 30 16 24 29 11 33 21 32 36 41 24 22 32 48 47 43 33 39 37 41 35 26 35 46 37 36 13 4 9 18 12 14 19 20 16 18 21 20 18
64 54 31 19 23 58 19 23 31 32 19 11 31 28 39 49 29 36 41 47 47 40 20 20 28 32 32 27 31 24 35 22 17 21 22 18 12 5 29 24 22 19 18 18 17
37 27 12 25 42 29 26 30 43 39 25 11 20 18 30 54 38 50 38 29 36 34 25 17 17 24 23 35 34 25 24 22 15 21 16 17 9 9 21 19 22 19 16 12 12
23 12 14 27 8 12 30 49 58 31 33 4 5 8 19 49 44 48 37 31 51 27 36 20 13 25 23 10 12 24 37 31 18 18 14 13 7 13 22 21 20 18 12 11 11
29 22 12 23 6 10 30 42 51 35 17 6 7 13 27 21 27 35 32 3 75 58 44 29 20 17 9 3 8 23 14 18 14 9 20 19 5 11 21 21 13 7 8 8 9
14 9 10 19 11 7 14 33 38 35 35 10 5 11 11 9 17 31 29 12 36 54 38 26 13 23 16 28 28 22 21 19 22 17 22 23 10 22 21 18 15 1 13 10 8
8 9 16 9 5 23 6 24 22 23 11 10 6 11 9 5 10 29 31 38 26 16 13 21 21 14 20 22 13 19 23 19 23 24 19 20 21 17 12 10 16 15 10 5 2
14 12 19 27 25 24 14 10 12 15 7 11 11 18 20 5 8 24 39 29 21 17 22 8 15 21 16 11 6 9 13 19 19 18 19 19 20 13 20 19 15 5 8 10 8
25 38 18 20 20 13 11 18 13 8 29 34 28 21 11 2 9 31 36 27 16 23 21 13 18 17 12 11 4 14 29 27 22 17 21 23 14 6 11 5 1 7 9 8 4
Wind_Direction_850mb
328 322 314 312 311 311 311 313 316 321 325 321 312 295 282 280 277 264 247 237 234 232 213 204 218 219 216 209 233 204 236 227 212 216 220 183 218 217 279 241 205 205 279 93 165
324 321 317 312 309 307 309 311 310 312 314 319 317 304 289 284 284 264 253 258 247 211 203 203 206 207 205 210 240 219 216 229 214 274 270 210 261 267 264 217 196 208 210 153 164
317 313 311 309 306 305 304 303 306 307 308 310 314 309 289 293 290 271 255 248 230 213 204 207 210 203 204 204 213 236 235 224 264 298 287 279 268 260 256 236 166 219 202 192 178
316 312 308 307 306 302 299 297 297 299 301 303 309 308 285 269 262 170 170 310 214 201 204 209 213 206 208 196 204 247 250 244 247 275 275 260 274 265 271 261 148 121 179 197 190
323 323 315 309 310 304 294 292 292 291 291 295 302 303 277 241 248 252 269 288 202 188 200 202 204 206 209 206 208 207 228 223 255 258 273 290 277 281 275 265 254 247 257 206 195
325 321 315 310 307 304 299 292 289 288 288 286 290 291 238 250 264 275 247 265 213 185 192 199 207 204 217 209 207 208 218 202 220 271 280 280 279 262 264 267 257 245 236 219 209
318 314 311 310 305 306 302 296 287 287 284 278 278 261 248 243 244 240 245 210 197 191 191 195 201 203 219 213 211 225 204 202 210 232 251 274 281 262 257 264 252 234 225 219 216
319 311 306 306 307 305 304 301 297 289 280 274 263 216 251 260 246 241 233 216 187 195 199 196 202 206 221 206 201 215 213 218 212 207 243 199 269 267 264 247 243 239 226 221 222
328 315 310 306 304 305 303 301 302 294 286 258 183 206 262 259 237 225 201 196 173 178 196 197 207 210 197 197 192 206 216 219 209 192 201 183 251 249 273 253 239 234 231 223 220
329 328 312 304 303 302 306 302 304 254 154 150 202 219 238 228 210 193 185 183 164 167 174 190 202 203 217 205 205 204 217 213 208 211 197 210 238 237 253 245 241 240 232 227 229
323 326 328 311 303 301 306 317 248 230 198 209 214 223 138 183 166 172 172 157 168 169 179 195 197 207 205 214 233 209 212 216 206 209 208 214 221 234 235 237 237 223 236 239 242
320 322 322 317 303 294 289 254 242 272 273 240 241 239 237 241 190 172 164 159 171 181 174 182 212 205 210 209 225 230 206 218 174 176 214 212 230 209 231 230 238 228 222 233 256
319 319 320 315 306 300 271 246 271 246 250 261 228 229 223 206 198 178 178 172 180 186 191 192 197 209 206 199 211 217 222 206 207 192 219 228 223 230 226 231 210 227 234 250 270
315 318 321 314 316 271 296 290 265 232 269 234 195 232 205 203 216 185 187 175 182 193 189 209 199 194 199 206 206 209 218 235 216 227 222 195 244 207 225 212 210 218 210 211 186
313 316 319 305 283 283 282 312 240 186 269 141 165 186 181 184 159 183 187 188 186 185 188 195 192 196 203 202 194 220 175 216 224 230 249 201 241 216 186 219 217 214 204 177 156
306 308 314 303 276 269 255 266 242 226 240 173 155 172 161 196 186 166 187 203 191 176 202 172 193 200 202 194 188 173 198 205 224 226 227 231 217 225 193 219 206 156 170 137 45
316 310 300 283 263 263 241 210 220 225 187 172 179 173 182 183 163 174 178 194 192 180 194 181 191 188 191 188 195 200 185 180 200 204 236 192 198 244 118 148 136 144 107 30 27
317 312 301 278 250 210 180 198 240 217 236 73 184 180 186 179 155 173 179 187 200 201 180 187 184 182 197 202 189 195 198 231 213 213 198 145 220 139 137 136 151 114 97 70 46
323 319 299 284 234 192 186 213 220 234 228 241 223 184 180 175 171 159 207 195 197 200 207 192 195 178 177 199 190 194 212 233 267 345 277 174 122 150 152 147 144 128 113 90 72
323 317 305 292 207 183 208 229 230 254 284 228 215 192 185 171 161 175 196 196 191 203 208 194 161 190 171 205 205 198 199 195 215 225 218 210 219 163 173 158 142 133 112 86 76
330 320 301 330 165 177 212 221 234 249 303 279 232 202 217 177 180 178 196 177 176 172 188 183 210 159 169 206 187 197 205 222 249 223 223 245 215 99 135 157 137 122 109 83 58
320 307 336 155 208 203 232 225 234 253 224 166 81 26 262 182 195 184 183 195 183 198 187 160 190 174 171 57 311 220 211 207 221 205 245 282 290 97 136 143 142 125 94 64 41
312 297 299 211 291 248 249 236 235 249 238 182 142 137 305 229 200 185 161 239 174 184 183 174 160 153 181 226 204 207 197 214 232 274 228 233 218 146 143 150 137 80 29 36 28
302 310 20 183 19 296 329 253 232 241 236 129 114 128 246 154 233 180 137 133 186 190 167 180 158 202 193 195 183 186 188 200 218 228 240 239 205 167 182 192 197 307 337 346 12
291 336 354 310 332 348 244 292 238 203 83 82 74 265 124 133 144 158 137 127 135 157 123 174 176 135 96 103 152 189 189 191 216 236 250 258 259 250 200 230 303 314 268 250 126
352 331 322 294 324 356 5 325 71 91 66 81 79 110 134 215 71 138 141 141 146 156 141 170 141 149 117 111 125 192 205 210 222 231 229 256 242 262 267 274 263 284 184 176 150
343 334 293 293 350 344 320 332 345 114 35 129 116 103 90 138 297 79 67 68 18 149 122 129 148 184 178 156 115 256 226 217 220 215 236 230 249 161 218 209 197 149 162 158 162